Weather History for Springfield, OH

Change the Weather History Date:

Wednesday, January 23, 2013

  Actual Average (KDAY) Record (KDAY)
Temperature  
Mean Temperature 12 °F 27 °F  
Max Temperature 18 °F 35 °F 69 °F (1967)
Min Temperature 6 °F 20 °F -18 °F (1963)
Degree Days  
Heating Degree Days 53 38  
Month to date heating degree days 868  
Since 1 July heating degree days 3027  
Cooling Degree Days 0 0  
Month to date cooling degree days 0  
Year to date cooling degree days 0  
Moisture  
Dew Point 5 °F    
Average Humidity 69    
Maximum Humidity 86    
Minimum Humidity 39    
Precipitation  
Precipitation 0.00 in 0.08 in 0.94 in (1996)
Month to date precipitation 2.07  
Year to date precipitation 2.07  
Snow  
Snow 0.00 in 0.30 in 3.00 in (1951)
Month to date snowfall 5.9  
Since 1 July snowfall 11.4  
Snow Depth -    
Sea Level Pressure  
Sea Level Pressure 30.22 in    
Wind  
Wind Speed 8 mph (WSW)    
Max Wind Speed 14 mph    
Max Gust Speed -    
Visibility 4 miles    
Events Snow    
T = Trace of Precipitation, MM = Missing Value Source: NWS Daily Summary

Daily Weather History Graph

Daily Weather History Graph

Search for Another Location

Airport:

Trip Planner

Search our weather history database for the weather conditions in past years. The results will help you decide how hot, cold, wet, or windy it might be!

Date:

Astronomy

Jan. 23, 2013 Rise Set
Actual Time 7:50 AM EST 5:44 PM EST
Civil Twilight 7:21 AM EST 6:13 PM EST
Nautical Twilight 6:48 AM EST 6:46 PM EST
Astronomical Twilight 6:16 AM EST 7:18 PM EST
Moon 2:54 PM EST 5:01 AM EST
Length of Visible Light 10h 52m
Length of Day
9h 53m
Waxing Gibbous, 89% of the Moon is Illuminated
Jan 23
Waxing Gibbous
Jan 26
Full
Feb 3
Last Quarter
Feb 10
New
Feb 17
First Quarter

Hourly Weather History & Observations

Time (EST) Temp. Windchill Dew Point Humidity Pressure Visibility Wind Dir Wind Speed Gust Speed Precip Events Conditions
12:56 AM 7.2 °F -4.3 °F -2.9 °F 63% 30.37 in 7.0 mi West 6.9 mph - N/A   Clear
1:56 AM 9.1 °F -1.9 °F -0.9 °F 64% 30.37 in 7.0 mi West 6.9 mph - N/A   Mostly Cloudy
2:56 AM 10.0 °F -3.7 °F -0.9 °F 61% 30.38 in 7.0 mi WNW 10.4 mph - N/A   Overcast
3:56 AM 8.1 °F -4.3 °F -1.8 °F 64% 30.37 in 7.0 mi West 8.1 mph - N/A   Clear
4:56 AM 6.1 °F -2.8 °F -2.9 °F 67% 30.36 in 7.0 mi West 4.6 mph - N/A   Clear
5:56 AM 8.1 °F -0.5 °F -1.8 °F 64% 30.37 in 7.0 mi West 4.6 mph - N/A   Overcast
6:56 AM 9.1 °F 0.8 °F -1.8 °F 61% 30.37 in 7.0 mi West 4.6 mph - N/A   Overcast
7:56 AM 10.0 °F -1.9 °F -1.8 °F 59% 30.37 in 7.0 mi West 8.1 mph - N/A   Overcast
8:56 AM 11.1 °F 0.4 °F -0.9 °F 58% 30.36 in 6.0 mi SW 6.9 mph - N/A   Haze
9:56 AM 12.0 °F 0.5 °F -0.9 °F 56% 30.37 in 6.0 mi SW 8.1 mph - N/A   Haze
10:56 AM 14.0 °F 1.2 °F 0.1 °F 54% 30.34 in 6.0 mi SW 10.4 mph - N/A   Haze
11:56 AM 16.2 °F 1.9 °F -2.9 °F 43% 30.32 in 6.0 mi WSW 13.8 mph - N/A   Haze
12:56 PM 18.1 °F 5.0 °F -2.9 °F 39% 30.27 in 6.0 mi SW 12.7 mph - N/A   Haze
1:56 PM 17.1 °F 3.6 °F -4.0 °F 39% 30.24 in 6.0 mi SW 12.7 mph - N/A   Haze
2:56 PM 17.1 °F 4.3 °F -1.8 °F 43% 30.23 in 6.0 mi WSW 11.5 mph - N/A   Haze
3:56 PM 16.2 °F 2.5 °F 3.0 °F 56% 30.22 in 5.0 mi WSW 12.7 mph - 0.00 in Snow Light Snow
4:18 PM 15.8 °F 5.1 °F 5.0 °F 62% 30.15 in 4.0 mi SW 8.1 mph - 0.00 in Snow Light Snow
4:42 PM 15.8 °F 4.2 °F 6.8 °F 68% 30.14 in 2.5 mi WSW 9.2 mph - 0.00 in Snow Light Snow
4:56 PM 15.1 °F 3.3 °F 8.1 °F 74% 30.21 in 2.5 mi WSW 9.2 mph - 0.00 in Snow Light Snow
5:05 PM 15.8 °F 3.4 °F 8.6 °F 73% 30.14 in 3.0 mi WSW 10.4 mph - 0.00 in Snow Light Snow
5:27 PM 15.8 °F 5.1 °F 8.6 °F 73% 30.13 in 2.5 mi SW 8.1 mph - 0.00 in Snow Light Snow
5:33 PM 15.8 °F 5.1 °F 8.6 °F 73% 30.13 in 2.5 mi SW 8.1 mph - 0.00 in Snow Light Snow
5:44 PM 15.8 °F 4.2 °F 8.6 °F 73% 30.13 in 1.8 mi SW 9.2 mph - 0.00 in Snow Light Snow
5:56 PM 15.1 °F 4.2 °F 9.1 °F 77% 30.20 in 3.0 mi SW 8.1 mph - 0.00 in Snow Light Snow
6:04 PM 14.0 °F 2.0 °F 8.6 °F 79% 30.13 in 2.5 mi SW 9.2 mph - 0.00 in Snow Light Snow
6:21 PM 14.0 °F 5.1 °F 10.4 °F 86% 30.12 in 1.8 mi WSW 5.8 mph - 0.00 in Snow Light Snow
6:30 PM 14.0 °F 5.1 °F 10.4 °F 86% 30.12 in 2.5 mi WSW 5.8 mph - 0.00 in Snow Light Snow
6:56 PM 14.0 °F 6.5 °F 10.0 °F 84% 30.19 in 4.0 mi WSW 4.6 mph - 0.00 in Snow Light Snow
7:56 PM 14.0 °F 6.5 °F 10.0 °F 84% 30.17 in 3.0 mi West 4.6 mph - 0.00 in Snow Light Snow
8:39 PM 14.0 °F 8.2 °F 10.4 °F 86% 30.10 in 3.0 mi WSW 3.5 mph - 0.00 in Snow Light Snow
8:56 PM 14.0 °F 5.1 °F 10.0 °F 84% 30.15 in 4.0 mi SW 5.8 mph - 0.00 in Snow Light Snow
9:56 PM 14.0 °F 6.5 °F 10.0 °F 84% 30.14 in 7.0 mi SW 4.6 mph - 0.00 in   Overcast
10:56 PM 14.0 °F 6.5 °F 10.0 °F 84% 30.14 in 4.0 mi SSW 4.6 mph - 0.00 in Snow Light Snow
11:09 PM 15.8 °F 7.2 °F 10.4 °F 79% 30.07 in 2.5 mi SSW 5.8 mph - 0.00 in Snow Light Snow
11:23 PM 15.8 °F 6.1 °F 10.4 °F 79% 30.07 in 3.0 mi SW 6.9 mph - 0.00 in Snow Light Snow
11:40 PM 15.8 °F 7.2 °F 10.4 °F 79% 30.08 in 3.0 mi WSW 5.8 mph - 0.00 in Snow Light Snow
11:56 PM 15.1 °F 4.2 °F 11.1 °F 84% 30.14 in 3.0 mi West 8.1 mph - 0.00 in Snow Light Snow